Photometre #44[NE_1.6] Rome_La_Sapienza AOT

File : 20221125_44.hum

25/11/2022,07:08:23,TEMP=9.4,BA=5.68,STAT.A=7.0,ExtBa=13.33
25/11/2022,07:12:43,TEMP=9.7,BA=5.68,STAT.A=7.0,ExtBa=13.33
25/11/2022,07:17:50,TEMP=9.7,BA=5.68,STAT.A=7.0,ExtBa=13.34
25/11/2022,07:23:59,TEMP=9.8,BA=5.68,STAT.A=7.0,ExtBa=13.33
25/11/2022,07:31:32,TEMP=9.7,BA=5.68,STAT.A=7.0,ExtBa=13.34
25/11/2022,07:41:03,TEMP=9.6,BA=5.68,STAT.A=7.0,ExtBa=13.33
25/11/2022,07:53:27,TEMP=9.7,BA=5.68,STAT.B=7.0,ExtBa=13.34
25/11/2022,07:57:11,TEMP=9.9,BA=5.68,STAT.F,ExtBa=13.30
25/11/2022,08:12:09,TEMP=10.2,BA=5.68,STAT.D=7.0,ExtBa=13.33
25/11/2022,08:27:10,TEMP=10.7,BA=5.68,STAT.D=7.0,ExtBa=13.33
25/11/2022,08:42:10,TEMP=11.2,BA=5.68,STAT.D=7.0,ExtBa=13.33
25/11/2022,08:57:11,TEMP=11.4,BA=5.68,STAT.F,ExtBa=13.30
25/11/2022,09:12:10,TEMP=12.3,BA=5.68,STAT.D=7.0,ExtBa=13.33
25/11/2022,09:27:10,TEMP=12.9,BA=5.68,STAT.D=7.0,ExtBa=13.33
25/11/2022,09:42:10,TEMP=13.5,BA=5.68,STAT.D=7.0,ExtBa=13.33
25/11/2022,09:57:12,TEMP=14.0,BA=5.68,STAT.F,ExtBa=13.31
25/11/2022,10:15:06,TEMP=14.7,BA=5.56,STAT.D=7.0,ExtBa=13.08
25/11/2022,10:27:10,TEMP=15.1,BA=5.68,STAT.D=7.0,ExtBa=13.38
25/11/2022,10:42:10,TEMP=15.1,BA=5.68,STAT.D=7.0,ExtBa=13.47
25/11/2022,10:57:12,TEMP=15.3,BA=5.68,STAT.F,ExtBa=13.50
25/11/2022,11:12:08,TEMP=15.6,BA=5.56,STAT.D=7.0,ExtBa=13.17
25/11/2022,11:27:10,TEMP=15.6,BA=5.68,STAT.D=7.0,ExtBa=13.42
25/11/2022,11:42:10,TEMP=15.9,BA=5.68,STAT.D=7.0,ExtBa=13.48
25/11/2022,11:57:12,TEMP=15.9,BA=5.68,STAT.F,ExtBa=13.49
25/11/2022,12:12:10,TEMP=16.0,BA=5.68,STAT.D=7.0,ExtBa=13.50
25/11/2022,12:27:10,TEMP=15.8,BA=5.68,STAT.D=7.0,ExtBa=13.48
25/11/2022,12:42:10,TEMP=15.6,BA=5.68,STAT.D=7.0,ExtBa=13.45
25/11/2022,12:57:11,TEMP=15.8,BA=5.68,STAT.F,ExtBa=13.41
25/11/2022,13:12:10,TEMP=15.9,BA=5.68,STAT.D=7.0,ExtBa=13.40
25/11/2022,13:27:10,TEMP=16.0,BA=5.68,STAT.D=7.0,ExtBa=13.38
25/11/2022,13:42:10,TEMP=15.9,BA=5.68,STAT.D=7.0,ExtBa=13.37
25/11/2022,13:57:11,TEMP=15.6,BA=5.68,STAT.F,ExtBa=13.35
25/11/2022,14:00:55,TEMP=15.7,BA=5.68,STAT.B=7.0,ExtBa=13.36
25/11/2022,14:13:19,TEMP=15.4,BA=5.68,STAT.A=7.0,ExtBa=13.35
25/11/2022,14:22:50,TEMP=15.4,BA=5.68,STAT.A=7.0,ExtBa=13.35
25/11/2022,14:30:23,TEMP=15.4,BA=5.68,STAT.A=7.0,ExtBa=13.34
25/11/2022,14:36:32,TEMP=15.6,BA=5.68,STAT.A=7.0,ExtBa=13.34
25/11/2022,14:41:39,TEMP=15.8,BA=5.68,STAT.A=7.0,ExtBa=13.33
25/11/2022,14:45:59,TEMP=15.9,BA=5.68,STAT.A=7.0,ExtBa=13.33